Weather History for Subic Bay, Philippines

Change the Weather History Date:

Sunday, August 25, 2013

  Actual Average Record
Temperature  
Mean Temperature 79 °F -  
Max Temperature 85 °F 84 °F 89 °F (1998)
Min Temperature 73 °F 74 °F 73 °F (2001)
Cooling Degree Days 14    
Growing Degree Days 29 (Base 50)    
Moisture  
Dew Point 75 °F    
Average Humidity 84    
Maximum Humidity 96    
Minimum Humidity 63    
Precipitation  
Precipitation 0.00 in - - ()
Sea Level Pressure  
Sea Level Pressure 29.73 in    
Wind  
Wind Speed 4 mph ()    
Max Wind Speed 10 mph    
Max Gust Speed -    
Visibility 7.0 miles    
Events Rain    
Averages and records for this station are not official NWS values.
T = Trace of Precipitation, MM = Missing Value Source: Averaged Metar Reports

Daily Weather History Graph

Daily Weather History Graph

Search for Another Location

Airport:

Trip Planner

Search our weather history database for the weather conditions in past years. The results will help you decide how hot, cold, wet, or windy it might be!

Date:

Astronomy

Aug. 25, 2013 Rise Set
Actual Time 5:46 AM PHT 6:15 PM PHT
Civil Twilight 5:24 AM PHT 6:37 PM PHT
Nautical Twilight 4:58 AM PHT 7:03 PM PHT
Astronomical Twilight 4:32 AM PHT 7:28 PM PHT
Moon 9:20 PM PHT (8/25) 9:20 AM PHT (8/25)
Length of Visible Light 13h 13m
Length of Day
12h 29m
Waning Gibbous, 80% of the Moon is Illuminated
Aug 25
Waning Gibbous
Aug 28
Last Quarter
Sep 5
New
Sep 13
First Quarter
Sep 19
Full

Hourly Weather History & Observations

Time (PHT) Temp. Heat Index Dew Point Humidity Pressure Visibility Wind Dir Wind Speed Gust Speed Precip Events Conditions
12:00 AM 75.2 °F - 73.4 °F 94% 29.80 in 6.2 mi Variable 2.3 mph - N/A   Mostly Cloudy
2:00 AM 76 °F - 75 °F 96% 29.77 in 7 mi East 4.5 mph - - Rain Light Rain
2:00 AM 75.2 °F - 73.4 °F 94% 29.77 in 6.2 mi Variable 3.5 mph - N/A   Mostly Cloudy
5:00 AM 75 °F - 73 °F 92% 29.75 in 7 mi East 4.5 mph - -   Haze
5:00 AM 75.2 °F - 71.6 °F 89% 29.74 in 6.2 mi East 4.6 mph - N/A   Partly Cloudy
6:00 AM 75.2 °F - 73.4 °F 94% 29.74 in 6.2 mi Variable 1.2 mph - N/A   Mostly Cloudy
7:00 AM 77.0 °F - 73.4 °F 89% 29.74 in 6.2 mi Variable 3.5 mph - N/A   Mostly Cloudy
8:00 AM 78 °F - 74 °F 84% 29.77 in 12 mi NNE 2.2 mph - -   Haze
8:00 AM 78.8 °F - 73.4 °F 83% 29.77 in 6.2 mi Variable 2.3 mph - N/A   Mostly Cloudy
9:00 AM 80.6 °F 86.2 °F 75.2 °F 84% 29.77 in 6.2 mi Variable 2.3 mph - N/A   Mostly Cloudy
10:00 AM 82.4 °F 89.5 °F 75.2 °F 79% 29.74 in 6.2 mi WSW 8.1 mph - N/A   Mostly Cloudy
11:00 AM 85 °F - 74 °F 63% 29.76 in 12 mi SW 4.5 mph - -   Haze
11:00 AM 84.2 °F 92.3 °F 75.2 °F 74% 29.74 in 6.2 mi SW 4.6 mph - N/A   Mostly Cloudy
12:00 PM 84.2 °F 94.1 °F 77.0 °F 79% 29.77 in 6.2 mi South 5.8 mph - N/A   Scattered Clouds
1:00 PM 84.2 °F 94.1 °F 77.0 °F 79% 29.71 in 6.2 mi SW 6.9 mph - N/A   Scattered Clouds
2:00 PM 84 °F - 78 °F 76% 29.70 in 11 mi South 8.9 mph - -   Haze
2:00 PM 84.2 °F 94.1 °F 77.0 °F 79% 29.68 in 6.2 mi South 9.2 mph - N/A   Mostly Cloudy
3:00 PM 82.4 °F 89.5 °F 75.2 °F 79% 29.68 in 6.2 mi South 6.9 mph - N/A   Overcast
4:00 PM 82.4 °F 89.5 °F 75.2 °F 79% 29.68 in 6.2 mi SSW 10.4 mph - N/A   Overcast
5:00 PM 82 °F - 76 °F 78% 29.70 in 11 mi South 4.5 mph - -   Haze
5:00 PM 82.4 °F 89.5 °F 75.2 °F 79% 29.68 in 6.2 mi South 4.6 mph - N/A   Overcast
6:00 PM 80.6 °F 86.2 °F 75.2 °F 84% 29.68 in 6.2 mi South 4.6 mph - N/A   Overcast
7:00 PM 80.6 °F 86.2 °F 75.2 °F 84% 29.71 in 6.2 mi South 4.6 mph - N/A   Mostly Cloudy
8:00 PM 80 °F - 76 °F 84% 29.73 in 7 mi SSE 4.5 mph - -   Haze
8:00 PM 78.8 °F - 75.2 °F 89% 29.71 in 6.2 mi Variable 2.3 mph - N/A   Mostly Cloudy
9:00 PM 78.8 °F - 75.2 °F 89% 29.74 in 6.2 mi Variable 3.5 mph - N/A   Mostly Cloudy
10:00 PM 78.8 °F - 75.2 °F 89% 29.74 in 6.2 mi Variable 1.2 mph - N/A   Scattered Clouds
11:00 PM 80 °F - 76 °F 84% 29.75 in 7 mi North 4.5 mph - -   Haze
11:00 PM 78.8 °F - 75.2 °F 89% 29.74 in 6.2 mi North 4.6 mph - N/A   Scattered Clouds